map of ZSE home
ZSE - Airport
Location
City:  St-Pierre, Réunion
Near (Alt.):St-Pierre de la Réunion
Name:Pierrefonds
ICAO:FMEP
IATA:ZSE

Details
Type:Airport (Aerodrome, Airfield)
Latitude:21°19'18"S (-21.321666)
Longitude:55°25'32"E (55.425556)
Elevation:59 ft (18 m)
Variation:19.50°W (WMM2015 magnetic declination)
0.03° annual change
Runways:1
Longest:6070 × 98 ft (1850 × 30 m), paved

Time
Time Zone:UTC+4
Local Time:

Weather
METAR:FMEP 230300Z AUTO 02004KT 360V060 9999 BKN038 BKN056 OVC070 21/15 Q1020 NOSIG

Related Locations
Nearby:
Farthest:MMCD: 11691 mi / 18815 km
Cedros [Isla de Cedros Airport], Isla de Cedros, BCN, MX

Find:

   beyond  
but within

Other Information
Maps:
NOTAMs:
Links:
Sources:

  
  • flag of Réunion
  

Sectional Chart

Flight Planning
at skyvector.com

Satellite Image

Google Maps Satellite view

 

Copyright © 2004-2018 Karl L. Swartz. All rights reserved.
The Great Circle Mapper name and logo are trademarks of the Great Circle Mapper.
All other trademarks mentioned herein belong to their respective owners.
Please see credits for attibutions and further copyright information.

  Follow gcmap on Facebook Follow gcmap on Twitter Follow gcmap on Google+ GCmap on LinkedIn

hCard Microformat

Geo Microformat